Change the Weather History Date:

Wednesday, December 11, 2013

  Actual Average Record
Temperature  
Mean Temperature 67 °F -  
Max Temperature 74 °F 76 °F 84 °F (2008)
Min Temperature 60 °F 53 °F 46 °F (2010)
Cooling Degree Days 2    
Growing Degree Days 17 (Base 50)    
Moisture  
Dew Point 58 °F    
Average Humidity 71    
Maximum Humidity 88    
Minimum Humidity 60    
Precipitation  
Precipitation 0.00 in - - ()
Sea Level Pressure  
Sea Level Pressure 30.14 in    
Wind  
Wind Speed 6 mph ()    
Max Wind Speed 16 mph    
Max Gust Speed -    
Visibility 8.8 miles    
Events      
Averages and records for this station are not official NWS values.
T = Trace of Precipitation, MM = Missing Value Source: Averaged Metar Reports

Daily Weather History Graph

Daily Weather History Graph

Search for Another Location

Airport or City:

Trip Planner

Search our weather history database for the weather conditions in past years. The results will help you decide how hot, cold, wet, or windy it might be!

Date:

Astronomy

Dec. 11, 2013 Rise Set
Actual Time 6:54 AM MST 5:35 PM MST
Civil Twilight 6:29 AM MST 5:59 PM MST
Nautical Twilight 6:01 AM MST 6:28 PM MST
Astronomical Twilight 5:33 AM MST 6:55 PM MST
Moon 1:45 PM MST (12/11) 1:47 AM MST (12/11)
Length of Visible Light 11h 30m
Length of Day
10h 40m
Waxing Gibbous, 72% of the Moon is Illuminated
Dec 11
Waxing Gibbous
Dec 17
Full
Dec 25
Last Quarter
Jan 1
New
Jan 7
First Quarter

Hourly Weather History & Observations

Time (MST) Temp. Dew Point Humidity Pressure Visibility Wind Dir Wind Speed Gust Speed Precip Events Conditions
1:50 AM 65 °F 62 °F 85% 30.06 in 2 mi NE 2.2 mph - -  
4:50 AM 64 °F 58 °F 76% 30.06 in 2 mi NE 2.2 mph - -  
5:40 AM 55.4 °F 51.8 °F 88% 30.09 in 7.0 mi Calm Calm - N/A   Partly Cloudy
7:40 AM 55.4 °F 51.8 °F 88% 30.27 in 7.0 mi Calm Calm - N/A   Overcast
8:00 AM 62 °F 56 °F 75%  in 12 mi South 2.2 mph - -  
8:40 AM 60.8 °F 55.4 °F 82% 30.14 in 7.0 mi Calm Calm - N/A   Overcast
9:40 AM 68.0 °F 59.0 °F 73% 30.15 in 7.0 mi North 5.8 mph - N/A   Overcast
10:40 AM 72 °F 62 °F 63% 30.19 in 16 mi North 8.9 mph - -   Mostly Cloudy
10:41 AM 71.6 °F 57.2 °F 60% 30.29 in 7.0 mi North 11.5 mph - N/A   Overcast
11:43 AM 71.6 °F 57.2 °F 60% 30.14 in 7.0 mi North 12.7 mph - N/A   Overcast
12:40 PM 71.6 °F 57.2 °F 60% 30.11 in 10.0 mi North 16.1 mph - N/A   Overcast
1:40 PM 73 °F 64 °F 65% 30.12 in 16 mi North 11.2 mph - -   Mostly Cloudy
1:41 PM 71.6 °F 57.2 °F 60% 30.23 in 10.0 mi North 15.0 mph - N/A   Overcast
2:40 PM 71.6 °F 57.2 °F 60% 30.07 in 10.0 mi North 13.8 mph - N/A   Overcast
3:40 PM 69.8 °F 57.2 °F 64% 30.08 in 10.0 mi North 13.8 mph - N/A   Overcast
4:45 PM 70 °F 62 °F 67% 30.07 in 16 mi North 6.7 mph - -   Partly Cloudy
4:51 PM 68.0 °F 59.0 °F 73% 30.22 in 10.0 mi NNE 13.8 mph - N/A   Overcast
5:41 PM 68.0 °F 59.0 °F 73% 30.11 in 10.0 mi North 6.9 mph - N/A   Overcast
6:44 PM 68.0 °F 59.0 °F 73% 30.12 in 10.0 mi NNE 9.2 mph - N/A   Overcast
7:41 PM 68.0 °F 59.0 °F 73% 30.23 in 10.0 mi NNE 9.2 mph - N/A   Overcast
7:45 PM 69 °F 61 °F 69% 30.09 in 2 mi North 6.7 mph - -   Mostly Cloudy
8:41 PM 68.0 °F 59.0 °F 73% 30.14 in 10.0 mi NNE 6.9 mph - N/A   Mostly Cloudy
9:44 PM 68.0 °F 59.0 °F 73% 30.14 in 10.0 mi North 6.9 mph - N/A   Mostly Cloudy
10:42 PM 68.0 °F 59.0 °F 73% 30.22 in 10.0 mi North 5.8 mph - N/A   Mostly Cloudy
10:50 PM 68 °F 62 °F 76% 30.11 in 2 mi North 4.5 mph - -   Mostly Cloudy